This demonstration page uses our WeatherBlox Daily Observations layout. Learn more.

Hourly Observations for December 4, 2019

Temp ( °F °C ) Dew Point ( °F °C ) Humidity (%) Winds ( mph kmh ) Pressure ( in mb ) Visibility ( mi km ) Precip ( " mm )
12:54 am 00:54 Clear 38 3.3 29 -1.7 70 70 W 9 15 29.95 1014 10 16.0934 0 0
1:54 am 01:54 Clear 37 2.8 28 -2.2 70 70 WNW 5 7 29.95 1014 10 16.0934 0 0
2:54 am 02:54 Clear 36 2.2 28 -2.2 73 73 W 5 7 29.96 1015 10 16.0934 0 0
3:54 am 03:54 Clear 36 2.2 28 -2.2 73 73 W 6 9 29.95 1014 10 16.0934 0 0
4:54 am 04:54 Clear 36 2.2 28 -2.2 73 73 WNW 7 11 29.96 1014 10 16.0934 0 0
5:54 am 05:54 Clear 36 2.2 28 -2.2 73 73 VRB 3 6 29.96 1015 10 16.0934 0 0
6:54 am 06:54 Clear 31 -0.6 26 -3.3 82 82 NNW 3 6 29.96 1015 10 16.0934 0 0
7:54 am 07:54 Sunny 32 0 26 -3.3 79 79 W 6 9 29.98 1015 10 16.0934 0 0
8:54 am 08:54 Sunny 37 2.8 29 -1.7 73 73 Calm 29.99 1016 10 16.0934 0 0
9:54 am 09:54 Sunny 46 7.8 30 -1.1 54 54 NW 8 13 29.99 1016 10 16.0934 0 0
10:54 am 10:54 Sunny 50 10 30 -1.1 46 46 WNW 10 17 30.01 1016 10 16.0934 0 0
11:54 am 11:54 Sunny 54 12.2 32 0 43 43 WNW 6 9 29.99 1016 10 16.0934 0 0
12:54 pm 12:54 Sunny 55 12.8 33 0.6 44 44 undefined N/A 29.97 1015 N/A 0 0
1:54 pm 13:54 Sunny 56 13.3 33 0.6 42 42 NNW 6 9 29.96 1015 10 16.0934 0 0
2:54 pm 14:54 Sunny 57 13.9 33 0.6 41 41 NNW 8 13 29.95 1014 10 16.0934 0 0
3:54 pm 15:54 Sunny 54 12.2 33 0.6 45 45 NNW 6 9 29.96 1014 10 16.0934 0 0
4:54 pm 16:54 Sunny 47 8.3 33 0.6 59 59 Calm 29.96 1015 10 16.0934 0 0
5:54 pm 17:54 Clear 40 4.4 32 0 73 73 Calm 29.97 1015 10 16.0934 0 0
6:54 pm 18:54 Clear 35 1.7 29 -1.7 78 78 Calm 29.98 1015 10 16.0934 0 0
7:54 pm 19:54 Clear 32 0 28 -2.2 85 85 Calm 29.98 1015 10 16.0934 0 0
8:54 pm 20:54 Clear 31 -0.6 27 -2.8 85 85 Calm 29.98 1015 10 16.0934 0 0
9:54 pm 21:54 Clear 29 -1.7 26 -3.3 89 89 Calm 29.97 1015 10 16.0934 0 0
10:54 pm 22:54 Clear 27 -2.8 24 -4.4 89 89 Calm 29.96 1015 10 16.0934 0 0
11:54 pm 23:54 Clear 29 -1.7 25 -3.9 85 85 Calm 29.96 1015 10 16.0934 0 0

Powered by AerisWeather